Weather in Cheremushka

Russia / Republic of Khakassia     54°27′38″N   91°00′04″E
temp.,
°C
wind,
m/s
gust,
m/s
humid.,
%
clouds,
%
prec.,
mm/h
press.,
hPa
HPBL,
m
7 may, fri
fri701:00+11ese2268100 0.0 100716
04:00+10se2271100 0.0 100625
07:00+11ese2373100 0.0 1006106
10:00+15se346096 0.0 1005292
13:00+22w51043100 0.4 10041945
16:00+20wnw81346100 0.1 10052054
19:00+16nw81347100 0.1 10091564
22:00+12wnw71350100 0.0 1013796
8 may, sat
sat801:00+10w411587 0.0 1015318
04:00+9w4105642 0.0 1016282
07:00+10w495756 0.0 1017535
10:00+12wnw694449 0.0 10172033
13:00+15wnw7103146 0.0 10152314
16:00+16wnw8113688 0.0 10142215
19:00+15w7134499 0.0 10141769
22:00+13w6125897 0.3 10141014
9 may, sun
sun901:00+11wnw5117292 1.2 1014779
04:00+9nw488115 0.8 1014289
07:00+7n4777100 0.9 1015836
10:00+6nw9135962 0.0 10171142
13:00+10nnw810385 0.0 10171778
16:00+11nnw793664 0.0 10182150
19:00+9n67465 0.0 10201532
22:00+5nne22660 0.0 102232
10 may, mon
mon1001:00+4se117499 0.0 102210
04:00+3ese117870 0.0 102210
07:00+4e116913 0.0 1021163
10:00+8ese345359 0.0 1019808
13:00+11se45415 0.0 10161326
16:00+14se353331 0.0 10131676
19:00+12n3442100 0.0 1012882
22:00+9ne5115999 0.0 1011428
11 may, tue
tue1101:00+7nnw236855 0.0 101054
04:00+4nw2384100 0.0 101064
07:00+5nw347719 0.0 1010373
10:00+10nnw55542 0.0 1010935
13:00+14n554250 0.0 10091632
16:00+15nne6637100 0.0 10092225
19:00+13ne575265 0.6 10111225
22:00+9nne486896 0.5 1014341